Regional Weather Roundup
Issued by NWS

Home | Current Version | Previous Version | Graphics & Text | Print | Product List | Glossary On
Versions: 1 2 3 4 5 6 7 8 9 10 11 12 13 14 15 16 17 18 19 20 21 22 23 24 25 26 27 28 29 30 31 32 33 34 35 36 37 38 39 40 41 42 43 44 45 46 47 48 49 50
000
ASUS43 KLOT 280603
RWRIL

ILLINOIS REGIONAL WEATHER ROUNDUP
NATIONAL WEATHER SERVICE CHICAGO/ROMEOVILLE IL
100 AM CDT WED JUN 28 2017

NOTE: "FAIR" INDICATES FEW OR NO CLOUDS BELOW 12,000 FEET WITH NO
SIGNIFICANT WEATHER AND/OR OBSTRUCTIONS TO VISIBILITY.

* THESE STATIONS ARE NOT UNDER NWS QUALITY CONTROL. THEY ALSO MAY NOT
  REPORT WEATHER SUCH AS PRECIPITATION OR FOG.

ILZ001-002-007-009-015-016-024-280700-
NORTHWEST ILLINOIS

CITY           SKY/WX    TMP DP  RH WIND       PRES   REMARKS
MOLINE         PTCLDY    59  50  72 SE5       29.98F
6HR MIN TEMP:  58; 6HR MAX TEMP:  75;

STERLING*      CLEAR     61  50  67 SE6       30.01F
SAVANNA*       CLEAR     59  48  67 CALM      30.00F
$$

ILZ003-004-008-010-011-017-018-280700-
NORTH CENTRAL ILLINOIS

CITY           SKY/WX    TMP DP  RH WIND       PRES   REMARKS
ROCKFORD       PTCLDY    60  47  61 S3        30.03F
6HR MIN TEMP:  59; 6HR MAX TEMP:  73;

FREEPORT*      CLEAR     56  47  73 S6        30.03S
ROCHELLE*      CLEAR     58  48  69 S9        30.04S
DE KALB*       CLEAR     57  47  68 S6        30.04F
$$

ILZ005-006-012>014-019>023-280700-
NORTHEAST ILLINOIS

CITY           SKY/WX    TMP DP  RH WIND       PRES   REMARKS
CHICAGO-OHARE  PTCLDY    61  46  57 S6        30.04S
6HR MIN TEMP:  61; 6HR MAX TEMP:  75;

CHICAGO-MIDWAY PTCLDY    66  47  50 S7        30.05R
6HR MIN TEMP:  66; 6HR MAX TEMP:  75;

AURORA         CLEAR     59  48  67 SE6       30.05S
6HR MIN TEMP:  57; 6HR MAX TEMP:  74;

LANSING*       CLEAR     58  47  67 S7        30.06F
JOLIET*        CLEAR     62  49  61 SE3       30.05F
WAUKEGAN       CLEAR     58  49  72 SW5       30.03S
6HR MIN TEMP:  55; 6HR MAX TEMP:  68;

DUPAGE AIRPORT CLEAR     60  49  66 S3        30.04R
6HR MIN TEMP:  57; 6HR MAX TEMP:  73;

WHEELING       CLEAR     59  50  72 CALM      30.05F
6HR MIN TEMP:  59; 6HR MAX TEMP:  74;

MORRIS*        CLEAR     59  48  66 S5        30.04S
$$

LMZ740>746-280700-
SOUTHERN LAKE MICHIGAN

STATION/POSITION SKY/WX   TEMP    WIND        PRES    VSBY  WAVE
                          AIR SEA DIR/SP/G                  HT/PER
                          (F)     (DEG/KT/KT) (MB)    (MI)  (FT/S)
SOUTHERN BUOY              64 61  150/ 10/ 12 1017.1          1/ 3
WILMETTE HARBOR            65 64  200/  6/  6   N/A           1/ 3
HARRISON CRIB              67     190/ 11/ 12   N/A
BURNHAM HARBOR             66                   N/A
CALUMET HARBOR             66     170/  9/ 12 1017.2S
BURNS HARBOR               63     180/  8/ 11 1018.3S
MICHIGAN CITY              64     160/  9/ 13   N/A
MICHIGAN CITY 6N           64 66  180/ 12/ 14   N/A           1
ST. JOSEPH                 67 69  180/ 14/ 19 1018.1R         1/ 2
$$

ILZ025>027-034>036-040-047-049-050-058-095>099-280700-
WEST-CENTRAL ILLINOIS

CITY           SKY/WX    TMP DP  RH WIND       PRES   REMARKS
QUINCY         CLEAR     66  54  65 S9        29.99S
GALESBURG*     PTCLDY    60  52  75 SE6       30.00F
MACOMB*        PTCLDY    59  54  82 SE6       30.02F
JACKSONVILLE*  CLEAR     64  53  67 SE7       30.02F
PITTSFIELD*    CLEAR     64  55  74 S6        30.03S
$$

ILZ028>032-037-038-041>044-048-051>054-059>061-280700-
CENTRAL ILLINOIS

CITY           SKY/WX    TMP DP  RH WIND       PRES   REMARKS
PONTIAC        CLEAR     58  52  79 SE6       30.06S
BLOOMINGTON    CLEAR     60  49  66 S9        30.06F
DECATUR        CLEAR     63  49  60 SE8       30.06S
PEORIA         CLEAR     62  51  67 S5        30.03F
6HR MIN TEMP:  62; 6HR MAX TEMP:  75;

LACON*         CLEAR     61  49  63 CALM      30.02F
LINCOLN*       CLEAR     60  53  77 CALM      30.04F
SPRINGFIELD    PTCLDY    66  53  63 SE8       30.04S
6HR MIN TEMP:  63; 6HR MAX TEMP:  77;

TAYLORVILLE    NOT AVBL
$$

ILZ033-039-045-046-055>057-062-063-280700-
EAST-CENTRAL ILLINOIS

CITY           SKY/WX    TMP DP  RH WIND       PRES   REMARKS
CHAMPAIGN      PTCLDY    56  49  77 SE6       30.08S
MATTOON        CLEAR     58  52  80 SE6       30.07F
PARIS*         CLEAR     56  51  84 SE3       30.10S
$$

ILZ079-100>102-280700-
SOUTHWEST ILLINOIS

CITY           SKY/WX    TMP DP  RH WIND       PRES   REMARKS
BELLEVILLE     CLEAR     62  55  75 CALM      30.06S
CAHOKIA*       CLEAR     67  53  61 S3        30.04S
SPARTA*        PTCLDY    63  55  76 SE5       30.07S
$$

ILZ064>066-069>071-074>076-080>082-084>086-088>090-092>094-280700-
SOUTH-CENTRAL ILLINOIS

CITY           SKY/WX    TMP DP  RH WIND       PRES   REMARKS
CARBONDALE     CLEAR     63  58  83 SE5       30.07S
6HR MIN TEMP:  63; 6HR MAX TEMP:  78;

CAIRO*         CLEAR     67  58  74 SE5       30.07S
EFFINGHAM*     CLEAR     58  55  87 SE5       30.09S
MARION         CLEAR     66  55  68 SE6       30.07F
MT. VERNON     PTCLDY    59  53  80 CALM      30.08S
CENTRALIA*     CLEAR     64  54  70 CALM      30.06S
SALEM*         CLEAR     66  51  58 SE3       30.07S
METROPOLIS*    CLEAR     62  59  88 CALM      30.08F
$$

ILZ067-068-072-073-078-083-087-091-280700-
SOUTHEAST ILLINOIS

CITY           SKY/WX    TMP DP  RH WIND       PRES   REMARKS
LAWRENCEVILLE  CLEAR     59  53  80 E3        30.10S
FLORA*         CLEAR     60  53  79 CALM      30.08S
FAIRFIELD*     CLEAR     58  55  88 CALM      30.07F
HARRISBURG*    CLEAR     59  57  93 CALM      30.08F
ROBINSON*      CLEAR     54  51  92 CALM      30.11S
CARMI*         PTCLDY    59  56  92 CALM      30.08S
$$

ABBREVIATIONS USED IN REMARKS
   TC - TEMPERATURE IN CELSIUS
  WCI - WIND CHILL INDEX
   HX - HEAT INDEX
  VSB - VISIBILITY
$$





USA.gov is the U.S. government's official web portal to all federal, state and local government web resources and services.